When you browse on this site, cookies collect data to enhance your experience and personalize the content and advertising you see.
Visit our Privacy Policy to learn more. By continuing to use the site, you agree to this use of cookies and data.
  • In United Kingdom
  • List of Countries
  • For 7 days
  • Water Temperature
  • Weather Map
  • Weather Widgets
  • user-avatar
    Login

    Hourly Weather Brzozowo

    Today, 5 June, Friday

    Time Temperature Precipitation Wind Pressure Humidity
    00:00 +9°C° 0 mm 2 mps 739 mmHg 83%
    01:00 +8°C° 0 mm 3 mps 739 mmHg 83%
    02:00 +8°C° 0 mm 3 mps 739 mmHg 84%
    03:00 +8°C° 0 mm 3 mps 739 mmHg 85%
    04:00 +8°C° 0 mm 3 mps 738 mmHg 85%
    05:00 +10°C° 0 mm 4 mps 738 mmHg 80%
    06:00 +12°C° 0 mm 5 mps 738 mmHg 75%
    07:00 +14°C° 0 mm 5 mps 738 mmHg 70%
    08:00 +16°C° 0 mm 6 mps 737 mmHg 69%
    09:00 +17°C° 0 mm 6 mps 737 mmHg 67%
    10:00 +20°C° 0 mm 7 mps 737 mmHg 66%
    11:00 +20°C° 0.3 mm 7 mps 737 mmHg 69%
    12:00 +21°C° 0.3 mm 7 mps 736 mmHg 72%
    13:00 +21°C° 0.3 mm 7 mps 736 mmHg 75%
    14:00 +21°C° 0.8 mm 6 mps 736 mmHg 78%
    15:00 +21°C° 0.8 mm 6 mps 736 mmHg 81%
    16:00 +21°C° 0.8 mm 6 mps 736 mmHg 83%
    17:00 +19°C° 0.9 mm 5 mps 737 mmHg 87%
    18:00 +17°C° 0.9 mm 4 mps 737 mmHg 91%
    19:00 +14°C° 0.9 mm 3 mps 737 mmHg 95%
    20:00 +14°C° 0 mm 3 mps 738 mmHg 95%
    21:00 +14°C° 0 mm 2 mps 738 mmHg 96%
    22:00 +14°C° 0 mm 2 mps 739 mmHg 97%
    23:00 +14°C° 0 mm 2 mps 739 mmHg 97%

    Tomorrow, 6 June, Saturday

    Time Temperature Precipitation Wind Pressure Humidity
    00:00 +12°C° 0 mm 3 mps 739 mmHg 97%
    01:00 +12°C° 0 mm 3 mps 740 mmHg 97%
    02:00 +12°C° 0 mm 3 mps 740 mmHg 97%
    03:00 +12°C° 0 mm 4 mps 740 mmHg 97%
    04:00 +12°C° 0 mm 4 mps 740 mmHg 97%
    05:00 +13°C° 0 mm 5 mps 740 mmHg 91%
    06:00 +14°C° 0 mm 6 mps 741 mmHg 86%
    07:00 +15°C° 0 mm 7 mps 742 mmHg 80%
    08:00 +15°C° 0 mm 7 mps 742 mmHg 74%
    09:00 +16°C° 0 mm 7 mps 743 mmHg 68%
    10:00 +16°C° 0 mm 7 mps 744 mmHg 62%
    11:00 +17°C° 0 mm 7 mps 744 mmHg 59%
    12:00 +18°C° 0 mm 7 mps 744 mmHg 57%
    13:00 +20°C° 0 mm 7 mps 745 mmHg 54%
    14:00 +20°C° 0 mm 6 mps 745 mmHg 55%
    15:00 +20°C° 0 mm 6 mps 745 mmHg 55%
    16:00 +21°C° 0 mm 5 mps 745 mmHg 56%
    17:00 +20°C° 0 mm 4 mps 745 mmHg 62%
    18:00 +19°C° 0 mm 3 mps 745 mmHg 67%
    19:00 +18°C° 0 mm 2 mps 745 mmHg 73%
    20:00 +17°C° 0 mm 2 mps 746 mmHg 77%
    21:00 +17°C° 0 mm 3 mps 746 mmHg 80%
    22:00 +15°C° 0 mm 4 mps 746 mmHg 84%
    23:00 +14°C° 0 mm 3 mps 746 mmHg 86%

    Day after tomorrow, 7 June, Sunday

    Time Temperature Precipitation Wind Pressure Humidity
    00:00 +14°C° 0 mm 3 mps 746 mmHg 89%
    01:00 +14°C° 0 mm 2 mps 747 mmHg 92%
    02:00 +14°C° 0 mm 2 mps 747 mmHg 92%
    03:00 +15°C° 0 mm 2 mps 747 mmHg 92%
    04:00 +14°C° 0 mm 3 mps 747 mmHg 92%
    05:00 +14°C° 0.4 mm 3 mps 746 mmHg 93%
    06:00 +15°C° 0.4 mm 4 mps 746 mmHg 93%
    07:00 +17°C° 0.4 mm 4 mps 746 mmHg 94%
    08:00 +18°C° 0 mm 4 mps 746 mmHg 93%
    09:00 +19°C° 0 mm 4 mps 746 mmHg 91%
    10:00 +20°C° 0 mm 4 mps 746 mmHg 89%
    11:00 +22°C° 0.8 mm 4 mps 745 mmHg 84%
    12:00 +23°C° 0.8 mm 4 mps 745 mmHg 79%
    13:00 +26°C° 0.8 mm 5 mps 745 mmHg 73%
    14:00 +25°C° 1.5 mm 4 mps 745 mmHg 76%
    15:00 +25°C° 1.5 mm 3 mps 745 mmHg 79%
    16:00 +24°C° 1.5 mm 3 mps 745 mmHg 82%
    17:00 +22°C° 0.7 mm 3 mps 745 mmHg 85%
    18:00 +21°C° 0.7 mm 3 mps 746 mmHg 89%
    19:00 +19°C° 0.7 mm 3 mps 746 mmHg 93%
    20:00 +19°C° 0.1 mm 2 mps 746 mmHg 94%
    21:00 +18°C° 0.1 mm 2 mps 747 mmHg 95%
    22:00 +17°C° 0.1 mm 2 mps 747 mmHg 96%
    23:00 +16°C° 0.1 mm 2 mps 747 mmHg 97%

    8 June, Monday

    Time Temperature Precipitation Wind Pressure Humidity
    00:00 +16°C° 0.1 mm 3 mps 747 mmHg 97%
    01:00 +16°C° 0.1 mm 3 mps 748 mmHg 97%
    02:00 +14°C° 0.2 mm 3 mps 748 mmHg 97%
    03:00 +14°C° 0.2 mm 3 mps 747 mmHg 97%
    04:00 +14°C° 0.2 mm 3 mps 747 mmHg 97%
    05:00 +16°C° 0.3 mm 3 mps 747 mmHg 96%
    06:00 +17°C° 0.3 mm 3 mps 748 mmHg 95%
    07:00 +18°C° 0.3 mm 3 mps 748 mmHg 94%
    08:00 +19°C° 0.2 mm 3 mps 748 mmHg 92%
    09:00 +20°C° 0.2 mm 3 mps 748 mmHg 90%
    10:00 +21°C° 0.2 mm 2 mps 748 mmHg 88%
    11:00 +23°C° 0.2 mm 2 mps 748 mmHg 85%
    12:00 +24°C° 0.2 mm 2 mps 748 mmHg 82%
    13:00 +25°C° 0.2 mm 2 mps 748 mmHg 79%
    14:00 +25°C° 1.4 mm 2 mps 748 mmHg 79%
    15:00 +25°C° 1.4 mm 2 mps 747 mmHg 79%
    16:00 +25°C° 1.4 mm 3 mps 747 mmHg 79%
    17:00 +24°C° 1.4 mm 2 mps 747 mmHg 81%
    18:00 +23°C° 1.4 mm 2 mps 747 mmHg 83%
    19:00 +22°C° 1.4 mm 1 mps 747 mmHg 85%
    20:00 +20°C° 0.4 mm 2 mps 748 mmHg 88%
    21:00 +19°C° 0.4 mm 2 mps 748 mmHg 90%
    22:00 +18°C° 0.4 mm 2 mps 748 mmHg 93%
    23:00 +18°C° 0.3 mm 2 mps 748 mmHg 93%

    9 June, Tuesday

    Time Temperature Precipitation Wind Pressure Humidity
    00:00 +18°C° 0.3 mm 2 mps 747 mmHg 94%
    01:00 +17°C° 0.3 mm 2 mps 747 mmHg 94%
    02:00 +17°C° 0 mm 2 mps 747 mmHg 94%
    03:00 +18°C° 0 mm 2 mps 747 mmHg 94%
    04:00 +18°C° 0 mm 2 mps 747 mmHg 94%
    05:00 +19°C° 0.1 mm 3 mps 747 mmHg 92%
    06:00 +20°C° 0.1 mm 3 mps 748 mmHg 89%
    07:00 +21°C° 0.1 mm 3 mps 748 mmHg 87%
    08:00 +22°C° 1.1 mm 3 mps 748 mmHg 82%
    09:00 +25°C° 1.1 mm 3 mps 748 mmHg 77%
    10:00 +26°C° 1.1 mm 3 mps 748 mmHg 72%
    11:00 +25°C° 1.4 mm 3 mps 748 mmHg 76%
    12:00 +24°C° 1.4 mm 3 mps 748 mmHg 79%
    13:00 +22°C° 1.4 mm 3 mps 747 mmHg 82%
    14:00 +24°C° 0.1 mm 3 mps 747 mmHg 79%
    15:00 +25°C° 0.1 mm 3 mps 747 mmHg 77%
    16:00 +25°C° 0.1 mm 3 mps 747 mmHg 74%
    17:00 +24°C° 0.6 mm 3 mps 747 mmHg 79%
    18:00 +24°C° 0.6 mm 3 mps 747 mmHg 83%
    19:00 +23°C° 0.6 mm 2 mps 747 mmHg 87%
    20:00 +21°C° 1.1 mm 2 mps 747 mmHg 88%
    21:00 +20°C° 1.1 mm 2 mps 748 mmHg 90%
    22:00 +20°C° 1.1 mm 2 mps 748 mmHg 91%
    23:00 +19°C° 0.1 mm 2 mps 748 mmHg 92%

    10 June, Wednesday

    Time Temperature Precipitation Wind Pressure Humidity
    00:00 +19°C° 0.1 mm 2 mps 748 mmHg 93%
    01:00 +18°C° 0.1 mm 2 mps 748 mmHg 94%
    02:00 +18°C° 0 mm 2 mps 748 mmHg 94%
    03:00 +18°C° 0 mm 2 mps 748 mmHg 95%
    04:00 +19°C° 0 mm 1 mps 748 mmHg 95%
    05:00 +20°C° 0.1 mm 1 mps 748 mmHg 92%
    06:00 +22°C° 0.1 mm 1 mps 748 mmHg 88%
    07:00 +23°C° 0.1 mm 1 mps 748 mmHg 85%
    08:00 +25°C° 0.1 mm 1 mps 748 mmHg 79%
    09:00 +26°C° 0.1 mm 1 mps 748 mmHg 74%
    10:00 +27°C° 0.1 mm 1 mps 748 mmHg 68%
    11:00 +28°C° 0.4 mm 1 mps 748 mmHg 65%
    12:00 +28°C° 0.4 mm 1 mps 748 mmHg 63%
    13:00 +29°C° 0.4 mm 1 mps 748 mmHg 61%
    14:00 +29°C° 0.5 mm 1 mps 748 mmHg 62%
    15:00 +28°C° 0.5 mm 1 mps 748 mmHg 64%
    16:00 +28°C° 0.5 mm 2 mps 748 mmHg 65%
    17:00 +27°C° 0.4 mm 1 mps 748 mmHg 71%
    18:00 +26°C° 0.4 mm 1 mps 748 mmHg 77%
    19:00 +24°C° 0.4 mm 1 mps 748 mmHg 83%
    20:00 +23°C° 0.6 mm 1 mps 748 mmHg 86%
    21:00 +22°C° 0.6 mm 1 mps 748 mmHg 88%
    22:00 +21°C° 0.6 mm 1 mps 748 mmHg 91%
    23:00 +21°C° 0 mm 1 mps 748 mmHg 91%
    Show more